Location: Alpha Ridge Park
(39.3209°N, 76.9128°W)
Time: 07:24:22
(UTC-04:00)

AO-92 - Pass Details

Date: 01 July 2022
Orbit: 469 x 481 km, 97.4° (Epoch: 09 August)

Event Time Altitude Azimuth Distance (km) Brightness Sun altitude
Exits shadow 23:32:53 48° 283° (WNW) 633 ? -23.5°
Drops below altitude 10° 23:35:57 11° 337° (NNW) 1,633 ? -23.7°
Sets 23:38:09 0° 343° (NNW) 2,550 ? -23.9°
